DK7AK Weather Reports


Display with metric or nautical units.
time (UTC)temp
F
wind
direction
speed
MPH
gust
MPH
rain 1hr
in
rain 24hr
in
rain mn
in
humidity
%
barometer
mb
20260506073503 58 191 2.0 6.0 0.00 1.59 0.11 83 997.0
20260506073003 58 190 2.0 6.0 0.00 1.59 0.11 84 997.0
20260506072503 58 184 3.0 8.0 0.00 1.59 0.11 85 996.9
20260506072004 58 181 1.0 8.0 0.00 1.59 0.11 87 997.1
20260506071504 58 197 4.0 5.0 0.00 1.59 0.11 90 996.9
20260506071004 57 201 2.0 5.0 0.00 1.59 0.11 91 997.0
20260505210503 55 135 0.0 1.0 0.11 1.49 1.49 98 998.9
20260505210004 55 0 0.0 0.0 0.11 1.49 1.49 98 998.8
20260505205503 55 0 0.0 0.0 0.11 1.49 1.49 98 999.1
20260505205003 55 0 0.0 0.0 0.11 1.49 1.49 98 999.0
20260505204504 55 0 0.0 0.0 0.16 1.49 1.49 98 998.8
20260505204003 55 0 0.0 0.0 0.21 1.49 1.49 98 998.8
20260505203504 55 0 0.0 0.0 0.21 1.49 1.49 98 998.8
20260505203004 55 0 0.0 0.0 0.21 1.49 1.49 98 998.9
20260505202504 55 0 0.0 0.0 0.27 1.49 1.49 98 998.9
20260505202004 55 0 0.0 0.0 0.21 1.44 1.44 98 998.9
20260505201504 55 0 0.0 0.0 0.27 1.44 1.44 98 998.9
20260505201003 55 0 0.0 0.0 0.27 1.44 1.44 98 998.9
20260505200504 55 181 0.0 1.0 0.21 1.38 1.38 98 999.0
20260505200003 55 181 0.0 1.0 0.27 1.38 1.38 98 998.7
20260505195504 55 181 0.0 1.0 0.27 1.38 1.38 98 998.9
20260505195004 55 192 0.0 2.0 0.32 1.38 1.38 98 998.9
20260505193504 56 174 2.0 3.0 0.27 1.28 1.28 98 998.8
20260505193004 56 181 1.0 2.0 0.27 1.28 1.28 98 998.9
20260505192004 56 0 0.0 0.0 0.27 1.22 1.22 97 998.7
20260505191504 56 135 0.0 1.0 0.27 1.17 1.17 97 998.7
20260505191003 56 174 0.0 2.0 0.27 1.17 1.17 97 998.7
20260505190504 56 175 0.0 2.0 0.37 1.17 1.17 96 998.8
20260505190004 56 174 0.0 2.0 0.32 1.12 1.12 96 998.7
20260505185503 56 173 0.0 2.0 0.37 1.12 1.12 96 998.5
20260505184004 56 181 0.0 1.0 0.43 1.06 1.06 95 998.5
20260505183503 56 188 0.0 3.0 0.48 1.01 1.01 95 998.5
20260505183004 56 187 0.0 3.0 0.58 1.01 1.01 95 998.5
20260505182504 57 181 0.0 3.0 0.58 0.96 0.96 94 998.5
20260505182003 57 185 0.0 3.0 0.69 0.96 0.96 94 998.4
20260505181504 57 194 2.0 3.0 0.69 0.90 0.90 94 998.2
20260505181003 57 186 1.0 2.0 0.74 0.90 0.90 93 998.2
20260505175504 57 176 1.0 3.0 0.64 0.74 0.74 92 998.3
20260505174004 58 185 1.0 2.0 0.64 0.64 0.64 90 998.5
20260505173004 58 207 1.0 4.0 0.43 0.43 0.43 89 998.5
20260505172004 58 200 2.0 4.0 0.27 0.27 0.27 87 998.4
20260505171004 59 192 2.0 4.0 0.16 0.16 0.16 85 998.4
20260505170503 60 182 2.0 4.0 0.16 0.16 0.16 83 998.4
20260505170004 60 187 1.0 4.0 0.11 0.11 0.11 82 998.5
20260505164504 62 219 2.0 9.0 0.05 0.05 0.05 76 998.1
20260505164004 63 235 3.0 9.0 0.00 0.00 0.00 74 998.2
20260505163504 64 221 3.0 4.0 0.00 0.00 0.00 71 998.1
20260505162504 65 241 2.0 6.0 0.00 0.00 0.00 66 997.9
20260505162003 65 249 2.0 6.0 0.00 0.00 0.00 65 997.9
20260505161504 66 286 2.0 3.0 0.00 0.00 0.00 64 998.0
20260505161003 66 236 2.0 3.0 0.00 0.00 0.00 63 997.8
20260505160504 66 209 1.0 4.0 0.00 0.00 0.00 62 997.8
20260505153004 66 33 4.0 6.0 0.00 0.00 0.00 63 997.9
20260505152504 66 32 2.0 7.0 0.00 0.00 0.00 63 997.8
20260505152004 66 6 4.0 7.0 0.00 0.00 0.00 62 997.8
20260505151004 67 8 3.0 9.0 0.00 0.00 0.00 61 997.8
20260505150503 67 36 4.0 9.0 0.00 0.00 0.00 61 998.1
20260505140505 69 38 2.0 3.0 0.00 0.00 0.00 61 998.3
20260505124504 71 355 2.0 5.0 0.00 0.00 0.00 57 999.1
20260505124004 71 345 2.0 5.0 0.00 0.00 0.00 56 999.1
20260505123504 71 170 2.0 6.0 0.00 0.00 0.00 57 999.1
20260505123004 71 149 2.0 6.0 0.00 0.00 0.00 56 999.1
20260505122504 72 99 4.0 5.0 0.00 0.00 0.00 52 999.0
20260505122004 72 129 1.0 3.0 0.00 0.00 0.00 52 999.2
20260505121504 72 151 2.0 3.0 0.00 0.00 0.00 50 999.3
20260505121003 72 158 1.0 2.0 0.00 0.00 0.00 51 999.3
20260505120504 71 42 0.0 4.0 0.00 0.00 0.00 51 999.3
20260505120004 71 28 0.0 4.0 0.00 0.00 0.00 51 999.5
20260505115504 71 175 3.0 4.0 0.00 0.00 0.00 51 999.3
20260505114503 70 42 2.0 4.0 0.00 0.00 0.00 52 999.6
20260505114004 71 44 2.0 4.0 0.00 0.00 0.00 50 999.5
20260505113504 71 334 1.0 2.0 0.00 0.00 0.00 50 999.5
20260505112504 71 27 1.0 6.0 0.00 0.00 0.00 50 999.7
20260505112004 72 38 4.0 6.0 0.00 0.00 0.00 49 999.6
20260505111003 72 329 2.0 5.0 0.00 0.00 0.00 51 999.8
20260505110504 71 359 2.0 5.0 0.00 0.00 0.00 51 999.7
20260505102004 70 10 2.0 4.0 0.00 0.00 0.00 55 1000.2
20260505101504 69 17 1.0 4.0 0.00 0.00 0.00 56 1000.3
20260505101004 69 22 1.0 4.0 0.00 0.00 0.00 55 1000.2
20260505100503 69 21 3.0 4.0 0.00 0.00 0.00 54 1000.4
20260505100003 69 47 3.0 6.0 0.00 0.00 0.00 54 1000.5
20260505095503 68 71 2.0 6.0 0.00 0.00 0.00 55 1000.4
20260505095003 69 253 5.0 6.0 0.00 0.00 0.00 56 1000.3
20260505093504 66 10 2.0 4.0 0.00 0.00 0.00 63 1000.5
20260505093004 65 357 2.0 4.0 0.00 0.00 0.00 64 1000.5
20260505092504 65 20 1.0 4.0 0.00 0.00 0.00 66 1000.7
20260505092004 64 34 2.0 4.0 0.00 0.00 0.00 67 1000.5
20260505091503 64 26 0.0 4.0 0.00 0.00 0.00 69 1000.6
20260505091003 64 27 2.0 4.0 0.00 0.00 0.00 69 1000.6
20260505090004 64 349 0.0 3.0 0.00 0.00 0.00 70 1000.7
20260505085004 63 12 2.0 3.0 0.00 0.00 0.00 73 1000.9
20260505084503 63 32 1.0 3.0 0.00 0.00 0.00 74 1001.1
20260505083504 63 44 1.0 2.0 0.00 0.00 0.00 73 1001.0
20260505083004 63 95 2.0 2.0 0.00 0.00 0.00 74 1001.0
20260505082504 63 181 0.0 1.0 0.00 0.00 0.00 74 1000.9
20260505082004 62 91 0.0 2.0 0.00 0.00 0.00 74 1001.4
20260505081504 62 48 0.0 2.0 0.00 0.00 0.00 75 1001.1
20260505081004 62 7 0.0 2.0 0.00 0.00 0.00 75 1001.2
20260505080504 62 1 2.0 2.0 0.00 0.00 0.00 76 1001.2